#timestamp,LO_Frequency,Hit 
1502953215.4,286046997.4,N
1502953235.2,286046997.5,N
1502953255.0,286047000.9,N
1502953255.9,286047000.9,N
1502953275.8,286047002.3,N
1502953295.6,286046999.9,N
1502953315.4,286047000.2,N
1502953335.3,286047000.0,N
1502953355.1,286047002.5,N
1502953375.8,286046998.3,N
1502953395.7,286047001.3,N
1502953415.5,286046999.0,N
1502953435.3,286046999.3,N
1502953455.2,286046998.1,N
1502953475.9,286046998.1,N
1502953495.7,286047001.2,N
1502953515.6,286047002.6,N
1502953535.4,286047003.7,N
1502953555.2,286047001.3,N
1502953575.0,286047002.5,N
1502953575.9,286047002.5,N
1502953595.8,286047000.3,N
1502953615.6,286046998.3,N
1502953635.4,286047000.7,N
1502953655.3,286047002.6,N
1502953675.1,286046998.9,N
1502953695.8,286046998.4,N
1502953715.7,286046999.2,N
1502953735.5,286046997.9,N
1502953755.3,286046995.4,N
1502953775.2,286046996.2,N
1502953795.9,286046991.8,P
1502953815.7,286046994.3,N
1502953835.6,286046995.7,N
1502953855.4,286046998.0,N
1502953875.2,286046994.9,N
1502953895.1,286046996.7,N
1502953896.0,286046996.7,N
1502953915.8,286046998.0,N
1502953935.6,286046998.9,N
1502953955.5,286046998.3,N
1502953975.3,286046995.8,N
1502953995.1,286046996.2,N
1502954015.8,286046995.4,N
1502954035.7,286046996.3,N
1502954055.5,286046996.6,N
1502954075.3,286046996.3,N
1502954095.2,286046993.3,P
1502954115.0,286046993.4,P
1502954115.9,286046993.4,P
1502954135.8,286046993.9,P
1502954155.6,286047002.4,P
1502954175.4,286047003.2,N
1502954195.3,286047002.3,N
1502954215.1,286047002.9,N
1502954216.0,286047002.9,N
1502954235.8,286047005.7,N
1502954255.7,286047004.1,N
1502954275.5,286047005.4,N
1502954295.3,286047008.9,N
1502954315.1,286047007.4,N
1502954335.9,286047006.7,N
1502954355.7,286047005.7,N
1502954375.5,286047009.0,N
1502954395.4,286047006.5,N
1502954415.2,286047005.0,N
1502954435.0,286047006.6,N
1502954435.9,286047006.6,N
1502954455.8,286047007.1,N
1502954475.6,286047004.5,N
1502954495.4,286047007.6,N
1502954515.3,286047007.4,N
1502954535.1,286047006.5,N
1502954536.0,286047006.5,N
1502954555.8,286047007.5,N
1502954575.7,286047007.5,N
1502954595.5,286047005.6,N
1502954615.3,286047006.0,N
1502954635.1,286047004.0,N
1502954655.9,286047004.1,N
1502954675.7,286047007.3,N
1502954695.5,286047005.0,N
1502954715.4,286047004.1,N
1502954735.2,286047001.9,N
1502954755.0,286047003.1,N
1502954755.9,286047003.1,N
1502954775.8,286047007.6,P
1502954795.6,286046999.8,N
1502954815.4,286047000.3,N
1502954835.3,286046999.9,N
1502954855.1,286047000.6,N
1502954875.8,286047002.8,N
1502954895.7,286047002.1,N
1502954915.5,286047000.6,N
1502954935.3,286046999.2,N
1502954955.2,286046998.4,N
1502954975.9,286046998.8,N
1502954995.7,286047000.6,N
1502955015.6,286046998.7,N
1502955035.4,286046997.2,N
1502955055.2,286046998.9,N
1502955075.1,286046997.8,N
1502955076.0,286046997.8,N
1502955095.8,286046995.6,N
1502955115.6,286046997.8,N
1502955135.5,286046999.1,N
1502955155.3,286046997.5,N
1502955175.1,286046996.9,N
1502955195.8,286046997.7,N
1502955215.7,286046996.5,N
1502955235.5,286046999.3,N
1502955255.3,286046997.6,N
1502955275.2,286046995.4,N
1502955295.9,286046998.2,N
1502955315.7,286047002.4,N
1502955335.6,286046999.0,N
1502955355.4,286046999.6,N
1502955375.2,286046994.9,N
1502955395.1,286046995.5,N
1502955396.0,286046995.5,N
1502955415.8,286046999.6,N
1502955435.6,286046997.0,N
1502955455.5,286046998.3,N
1502955475.3,286046998.8,N
1502955495.1,286047000.5,N
1502955515.8,286047000.3,N
1502955535.7,286047002.3,N
1502955555.5,286046998.1,N
1502955575.3,286046999.9,N
1502955595.2,286046996.6,N
1502955615.9,286047000.9,N
1502955635.7,286046999.8,N
1502955655.6,286046998.1,N
1502955675.4,286047000.8,N
1502955695.2,286046998.2,N
1502955715.1,286047000.0,N
1502955716.0,286047000.0,N
1502955735.8,286046998.4,N
1502955755.6,286046998.1,N
1502955775.5,286046998.9,N
1502955795.3,286047001.6,N
1502955815.1,286047000.8,N
1502955835.8,286047000.7,N
1502955855.7,286046997.3,N
1502955875.5,286047000.5,N
1502955895.3,286046999.2,N
1502955915.2,286046998.6,N
1502955935.0,286046996.9,N
1502955935.9,286046996.9,N
1502955955.7,286046996.1,N
1502955975.6,286046996.1,N
1502955995.4,286046998.2,N
1502956015.2,286047002.4,N
1502956035.1,286046998.8,N
1502956036.0,286046998.8,N
1502956055.8,286046996.9,N
1502956075.6,286047002.0,N
1502956095.5,286047002.2,N
1502956115.3,286047002.3,N
1502956135.1,286047002.0,N
1502956155.9,286046998.4,N
1502956175.7,286047000.7,N
1502956195.5,286046999.4,N
1502956215.4,286046999.4,N
1502956235.2,286047001.1,N
1502956255.0,286046998.3,N
1502956255.9,286046998.3,N
1502956275.8,286047001.1,N
1502956295.6,286047001.1,N
1502956315.4,286046998.4,N
1502956335.3,286046993.7,P
1502956355.1,286046997.3,N
1502956375.8,286046994.9,N
1502956395.7,286046996.5,N
1502956415.5,286046998.6,N
1502956435.3,286046996.6,N
1502956455.2,286046996.8,N
1502956475.9,286046995.4,N
1502956495.7,286046996.1,N
1502956515.6,286046995.2,P
1502956535.4,286046998.3,N
1502956555.2,286046998.3,N
1502956575.1,286046998.5,N
1502956576.0,286046998.5,N
1502956595.8,286046999.9,N
1502956615.6,286046998.6,N
1502956635.5,286047001.6,N
1502956655.3,286047003.3,N
1502956675.1,286047002.0,N
1502956695.9,286046998.8,N
1502956715.7,286046999.1,N
1502956735.5,286046995.6,N
1502956755.3,286046997.7,N
1502956775.2,286046998.5,N
1502956795.0,286046996.5,N
1502956795.9,286046996.5,N
